{"data":{"norad_id":64859,"epoch":"2026-05-25T02:56:21.819264Z","epoch_age_seconds":57668,"freshness":"FRESH","line1":"1 64859U 25152T   26145.12247476  .00002583  00000+0  18301-3 0  9991","line2":"2 64859  97.4510   0.5478 0002222  89.4143 270.7339 15.05656287 46928","mean_motion":15.05656287,"eccentricity":0.0002222,"inclination_deg":97.451,"raan_deg":0.5478,"arg_perigee_deg":89.4143,"mean_anomaly_deg":270.7339,"bstar":0.00018301,"rev_number":4692,"period_min":95.639357563417,"perigee_km":547.95255022225,"apogee_km":551.03118849179,"semimajor_km":6927.628869357,"source":"CELESTRAK","updated_at":"2026-05-25T13:38:20.616091Z"}}